This is the latest recevied weather packets stored in our database for station/object F8KHU-13. If no packets are shown the sender has not sent any weather packets the latest 10 day(s).
| Time | Temp. | Humidity | Pressure | Rain* | Wind** | Luminosity | Snow |
|---|---|---|---|---|---|---|---|
| 1788516661 | 22.78° C | 26% | 1014.7 hPa | 0 mm | - | 0 W/m² | - |
| 1788516641 | 21.67° C | 27% | 1014.7 hPa | 0 mm | - | 0 W/m² | - |
| 1788516621 | 22.78° C | 26% | 1014.9 hPa | 0 mm | - | 0 W/m² | - |
| 1788515761 | 21.67° C | 28% | 1014.9 hPa | 0 mm | - | 0 W/m² | - |
| 1788515741 | 21.67° C | 28% | 1014.9 hPa | 0 mm | - | 0 W/m² | - |
| 1788515721 | 21.67° C | 27% | 1015 hPa | 0 mm | - | 0 W/m² | - |
| 1788514861 | 21.67° C | 28% | 1015.1 hPa | 0 mm | - | 0 W/m² | - |
| 1788514841 | 21.67° C | 28% | 1015.1 hPa | 0 mm | - | 0 W/m² | - |
| 1788513941 | 20.56° C | 27% | 1015.2 hPa | 0 mm | - | 0 W/m² | - |
| 1788513043 | 20.56° C | 27% | 1015.3 hPa | 0 mm | - | 0 W/m² | - |
| 1788512122 | 21.67° C | 28% | 1015.1 hPa | 0 mm | - | 0 W/m² | - |
| 1788511262 | 20.56° C | 28% | 1015.1 hPa | 0 mm | - | 0 W/m² | - |
| 1788511242 | 21.67° C | 28% | 1015.1 hPa | 0 mm | - | 0 W/m² | - |
| 1788511222 | 21.67° C | 28% | 1015.2 hPa | 0 mm | - | 0 W/m² | - |
| 1788510342 | 20.56° C | 28% | 1014.9 hPa | 0 mm | - | 0 W/m² | - |
| 1788509462 | 20.56° C | 29% | 1014.8 hPa | 0 mm | - | 0 W/m² | - |
| 1788509442 | 20.56° C | 29% | 1014.7 hPa | 0 mm | - | 0 W/m² | - |
| 1788508522 | 20.56° C | 30% | 1014.5 hPa | 0 mm | - | 0 W/m² | - |
| 1788507662 | 20° C | 42% | 1014.5 hPa | 0 mm | - | 0 W/m² | - |
| 1788507642 | 20.56° C | 41% | 1014.6 hPa | 0 mm | - | 0 W/m² | - |
| 1788507622 | 20.56° C | 41% | 1014.6 hPa | 0 mm | - | 0 W/m² | - |
| 1788506775 | 20.56° C | 44% | 1014.8 hPa | 0 mm | - | 0 W/m² | - |
| 1788506743 | 20° C | 45% | 1014.7 hPa | 0 mm | - | 0 W/m² | - |
| 1788506723 | 20° C | 45% | 1014.7 hPa | 0 mm | - | 0 W/m² | - |
| 1788505863 | 20° C | 48% | 1015 hPa | 0 mm | - | 0 W/m² | - |
* Rain latest hour (hover to see other rain measurements)
** Current wind speed in m/s (hover to see current wind gust speed)